Location: Kolonie Stahldorf
(52.3167°N, 10.2500°E)
Time: 13:47:08
(UTC+00:00)

Daily predictions for brighter satellites

Satellite Brightness Start Highest point End
(mag) Time Altitude Azimuth Time Altitude Azimuth Time Altitude Azimuth
Cosmos 1452 Rocket 3.5 19:39:23 10° SSW 19:44:37 85° ESE 19:49:54 10° NNE
NOSS 3-3 (A) 4.1 19:40:20 10° S 19:45:08 39° ESE 19:50:48 10° NE
Cosmos 1725 Rocket 4.0 19:39:11 10° S 19:45:26 76° E 19:51:40 10° NNE
ISS -3.6 19:45:12 10° WSW 19:48:29 55° SSE 19:51:47 10° E
Tsikada Rocket 4.0 19:43:51 10° N 19:50:04 74° ENE 19:56:12 10° SSE
Cosmos 1758 Rocket 4.2 19:46:37 10° N 19:50:49 42° ENE 19:55:00 10° SE
Meteor 1-27 4.2 19:45:28 10° S 19:51:06 77° E 19:56:41 10° NNE
ADEOS 3.9 19:46:34 10° S 19:51:46 72° WSW 19:57:00 10° NNW
Cosmos 2278 4.4 19:46:56 10° NNW 19:52:28 46° NE 19:57:57 10° ESE
Cosmos 2084 Rocket 4.1 19:50:02 10° NW 19:54:05 48° SW 19:58:09 10° SSE
USA 306 1.6 19:51:29 10° WSW 19:54:42 60° SSE 19:56:56 10° ENE
Cosmos 1302 Rocket 4.0 19:49:53 10° SSW 19:55:00 68° ESE 20:00:11 10° NNE
SL-16 R/B 2.5 19:51:59 10° NNW 19:57:37 59° NE 20:03:13 10° SE
CZ-4B R/B 3.4 19:54:54 10° SE 19:57:59 34° ENE 20:01:10 10° N
Cosmos 2016 Rocket 4.0 19:54:32 10° S 20:00:47 87° ESE 20:07:01 10° N
Cosmos 724 4.3 19:54:57 10° SW 20:00:58 86° SE 20:06:55 10° NE
CZ-4C R/B 2.2 19:56:44 10° SW 20:01:07 72° NW 20:06:54 10° NE
SKYMED 3 4.4 19:58:01 10° NNE 20:02:00 88° WNW 20:05:58 10° SSW
SL-08 R/B 3.3 19:57:18 10° NNE 20:02:11 75° ESE 20:06:55 10° S
Helios 1A Rocket 3.5 20:07:33 10° N 20:10:35 44° WNW 20:13:35 10° SW
COSMOS 2406 3.6 20:05:47 10° S 20:11:09 42° ESE 20:16:32 10° NE
Cosmos 1743 4.1 20:10:06 10° NNW 20:12:43 27° W 20:15:20 10° SSW
Terra 3.1 20:09:02 10° SSW 20:13:25 39° W 20:17:51 10° NNW
Cosmos 1980 Rocket 3.7 20:09:14 10° NW 20:14:14 32° WSW 20:19:12 10° SSW
Meteor 1-20 Rocket 4.3 20:09:27 10° N 20:15:01 66° ENE 20:20:32 11° SSE
YAOGAN 11 4.1 20:10:38 10° NNE 20:15:03 67° ESE 20:19:30 10° S
Cosmos 1602 Rocket 4.1 20:11:10 10° N 20:15:17 42° ENE 20:18:56 13° SE
NOSS 3-3 (C) 3.9 20:11:07 10° SSW 20:16:12 53° SE 20:22:18 10° NE
CZ-4 R/B 3.8 20:14:17 10° SW 20:16:43 17° W 20:19:10 10° NW
USA 245 4.3 20:13:50 10° SSE 20:19:43 77° ENE 20:25:17 10° NNW
Cosmos 1933 3.8 20:19:19 11° SSE 20:22:36 38° E 20:26:09 10° NNE
Cosmos 2333 Rocket 2.3 20:17:16 10° NNW 20:23:00 77° ENE 20:28:05 13° SE
NOSS 3-4 (A) 3.9 20:21:14 10° NW 20:27:44 77° NE 20:34:49 13° SE
NOSS 3-4 (C) 3.9 20:21:52 10° NW 20:28:23 76° NE 20:35:29 13° SE
Cosmos 2061 Rocket 4.1 20:24:58 10° S 20:31:13 88° W 20:37:35 10° N
Cosmos 1626 Rocket 3.7 20:27:37 10° NNW 20:32:00 77° W 20:36:18 10° S
Cosmos 1782 3.9 20:29:11 10° SW 20:32:31 39° WNW 20:35:52 10° N
Cosmos 1805 3.5 20:30:03 10° N 20:33:09 38° ENE 20:35:11 18° SE
SPOT 3 Rocket 3.6 20:33:28 12° SSE 20:38:20 84° WSW 20:43:31 10° NNW
ATLAS 2AS CENTAUR R/B 4.3 20:32:00 10° W 20:38:22 38° NNW 20:44:40 10° NE
Cosmos 2098 Rocket 3.8 20:35:17 14° SSE 20:38:56 38° E 20:42:50 10° NNE
Cosmos 2360 Rocket 2.4 20:35:07 10° NNW 20:40:48 65° NE 20:45:21 16° SE
Cosmos 1607 4.2 20:35:20 10° SW 20:41:30 73° NW 20:47:50 10° NE
Ariane Rocket 3.0 20:37:06 14° SSE 20:41:31 84° ENE 20:46:36 10° NNW
Cosmos 220 Rocket 4.3 20:39:51 13° S 20:43:04 39° ESE 20:46:56 10° NE
Meteor 1-25 Rocket 4.2 20:41:26 10° NNW 20:47:09 86° ENE 20:51:51 15° SSE
Cosmos 1606 Rocket 4.2 20:49:16 19° SSE 20:51:55 38° E 20:55:56 10° NNE
Cosmos 2151 3.3 20:49:44 10° NNW 20:53:49 61° W 20:57:14 14° S
Helios 1B rocket 4.0 20:52:03 12° E 20:54:02 19° ENE 20:56:32 10° NNE
Okean 1 4.1 20:52:40 21° SE 20:54:09 28° E 20:57:16 10° NNE
Cosmos 2219 Rocket 2.6 20:49:18 10° NNW 20:54:53 55° NE 20:59:14 17° SE
Okean O Rocket 3.3 20:53:55 10° SSW 20:57:38 28° W 21:01:22 10° NW
Cosmos 1763 Rocket 4.5 20:55:34 19° SSE 20:58:22 30° E 21:02:54 10° NE
Cosmos 1726 Rocket 4.2 20:59:18 21° SE 21:01:12 33° E 21:04:51 10° NNE
CZ-2C R/B 2.0 21:01:38 26° S 21:03:00 69° WSW 21:05:47 10° NNW
Cosmos 1461 2.4 20:59:21 10° SSW 21:03:01 66° SE 21:06:41 10° NE
Cosmos 990 Rocket 4.3 20:59:12 10° NNW 21:04:17 56° ENE 21:07:49 20° SE
RESURS DK-1 4.4 21:02:44 10° N 21:05:47 20° NE 21:08:48 10° E
Okean 1-7 Rocket 3.6 21:03:28 10° N 21:07:58 83° E 21:10:52 22° SSE
BREEZE-M DEB (TANK) 4.1 20:59:04 10° WSW 21:11:22 59° S 21:16:19 10° E
Cosmos 2034 Rocket 4.4 21:07:11 19° SSE 21:11:37 50° E 21:17:42 10° NNE
CZ-4B R/B 3.9 21:07:48 15° S 21:11:38 52° W 21:16:23 10° NNW
USA 186 4.3 21:10:42 10° WSW 21:11:48 12° W 21:12:54 10° WNW
Cosmos 2322 Rocket 2.2 21:06:12 10° NNW 21:11:53 78° WSW 21:15:45 21° SSE
Cosmos 1437 Rocket 3.1 21:10:00 10° SSW 21:13:29 55° WNW 21:17:02 10° N
Cosmos 1544 Rocket 4.3 21:09:26 10° SSW 21:13:40 51° WNW 21:17:54 10° N
Cosmos 1777 Rocket 4.1 21:10:30 10° NNW 21:15:44 75° WSW 21:19:08 22° SSE
Cosmos 2082 Rocket 3.5 21:11:51 10° WSW 21:17:18 44° NW 21:22:46 10° NNE
USA 306 1.7 21:19:15 10° W 21:21:42 46° N 21:21:48 46° N
Cosmos 1503 Rocket 4.0 21:17:36 10° NNW 21:22:49 82° WSW 21:25:58 24° SSE
ISS -3.9 21:21:51 10° W 21:25:12 81° S 21:27:26 20° E
Nadezhda 4 Rocket 4.0 21:21:52 10° NNW 21:28:00 77° W 21:32:26 20° S
Cosmos 44 3.7 21:23:48 10° NW 21:29:13 67° NE 21:32:52 20° ESE
Cosmos 2237 Rocket 4.1 21:24:55 10° NNW 21:29:31 24° NE 21:34:05 10° E
Meteor 2-10 4.5 21:26:00 10° NNW 21:31:42 68° W 21:35:38 20° S
Cosmos-2242 3.6 21:30:18 28° SE 21:31:47 39° E 21:35:39 10° NNE
USA 290 2.1 21:33:39 40° S 21:34:33 63° ESE 21:37:39 10° NNE
Cosmos 1707 2.8 21:36:03 32° E 21:36:06 32° E 21:38:40 10° NNE
Cosmos 1354 Rocket 4.0 21:31:11 10° NNW 21:36:28 89° WSW 21:39:24 27° SSE
COSMOS 2428 3.5 21:33:10 10° NNW 21:38:39 45° NE 21:42:51 16° ESE
SL-16 R/B 3.5 21:36:31 10° NW 21:41:23 30° WSW 21:45:09 15° SSW
Cosmos 1825 Rocket 4.0 21:38:03 10° NNW 21:42:18 55° W 21:44:44 24° SSW
Cosmos 1953 Rocket 3.5 21:43:19 10° NNW 21:47:42 81° W 21:49:43 31° S
Cosmos 372 Rocket 4.3 21:42:38 10° NNW 21:47:43 58° ENE 21:50:33 25° SE
CZ-4C R/B 4.1 21:45:48 10° WNW 21:50:18 31° NNW 21:56:00 10° NE
Cosmos 2026 Rocket 4.0 21:44:33 10° N 21:50:59 87° WSW 21:54:55 25° S
Cosmos 1271 Rocket 3.8 21:52:42 23° E 21:52:54 23° E 21:55:39 10° NE
COSMOS 2406 4.3 21:49:57 10° WSW 21:55:26 45° NW 22:00:58 10° NNE
Cosmos 2221 3.9 21:54:54 21° ESE 21:55:55 23° E 21:59:16 10° NE
Aureole 1 Rocket 3.9 21:51:26 10° NNW 21:57:01 87° ENE 22:00:52 27° SSE
Cosmos 2058 Rocket 3.1 21:57:50 35° SSE 21:59:31 64° E 22:03:49 10° NNE
Cosmos 1766 2.7 21:58:09 10° NNW 22:01:23 76° W 22:02:02 52° S
Cosmos 540 Rocket 3.4 21:58:20 24° SSW 22:01:29 78° ESE 22:06:39 10° NNE
Cosmos 1937 Rocket 4.1 22:00:44 10° NNW 22:05:43 47° ENE 22:08:42 22° ESE
Cosmos 1842 3.4 22:05:49 37° E 22:05:55 37° E 22:08:52 10° NNE
Cosmos 2333 Rocket 3.9 22:02:23 10° NW 22:06:43 23° WSW 22:10:06 14° SW
Spot 4 4.0 22:07:43 31° SE 22:09:55 63° ENE 22:14:40 10° N
Geosat 3.9 22:06:03 10° NNE 22:11:06 89° SE 22:14:39 20° SSW
Cosmos 468 Rocket 4.1 22:10:44 31° S 22:13:05 59° ESE 22:18:16 10° NNE
ARIANE 5 R/B 2.8 22:11:52 34° SE 22:13:40 67° ENE 22:18:08 10° N
ALOS 2 2.9 22:13:10 32° SE 22:14:57 57° ENE 22:19:17 10° N
Cosmos 1833 4.2 22:11:33 18° SSW 22:15:56 87° WNW 22:21:36 10° NNE
Cosmos 2297 Rocket 3.7 22:17:12 18° ESE 22:18:32 20° E 22:22:28 10° NE
Cosmos 1536 2.8 22:16:49 10° NNW 22:20:28 61° W 22:21:25 43° SSW
Meteor 2-6 Rocket 4.4 22:18:01 30° S 22:21:02 67° E 22:26:56 10° NNE
Cosmos 2360 Rocket 3.6 22:19:40 10° NW 22:24:22 27° WSW 22:27:05 19° SW
Cosmos 2322 3.7 22:18:39 10° NNW 22:24:23 89° NE 22:27:17 31° SSE
Helios 1A 3.3 22:21:10 10° N 22:25:01 54° WNW 22:26:53 27° SW
Helios 1B rocket 2.7 22:25:59 38° SW 22:26:45 44° W 22:30:08 10° NNW
CSL-04 DEB 4.5 22:27:08 42° SW 22:27:56 51° WSW 22:31:30 10° NNW
USA 234 3.8 22:23:46 10° ENE 22:29:47 37° SE 22:32:06 29° S
ATLAS 2AS CENTAUR R/B 4.4 22:24:53 10° NW 22:30:57 33° N 22:37:00 10° ENE
PSLV R/B 4.0 22:29:29 10° NNE 22:33:36 45° E 22:34:43 37° SE
Cosmos 1092 Rocket 4.5 22:30:53 10° NNW 22:36:49 51° W 22:40:16 25° SSW
Cosmos 1898 Rocket 3.4 22:32:22 10° NNW 22:37:34 81° WSW 22:39:45 36° SSE
Cosmos 2219 Rocket 3.3 22:33:36 10° NW 22:38:35 33° WSW 22:40:55 24° SSW
SeaSat 1 3.8 22:34:43 11° ESE 22:38:58 35° NE 22:43:24 10° NNW
Cosmos 1763 Rocket 4.2 22:35:26 14° SW 22:39:50 53° WNW 22:45:00 10° NNE
Cosmos 1470 2.2 22:36:39 10° NNW 22:39:57 70° W 22:40:17 62° SW
Meteor 1-19 Rocket 4.5 22:39:43 33° SSE 22:42:18 61° E 22:48:08 10° NNE
RESURS DK-1 2.2 22:39:35 10° NW 22:43:34 72° WSW 22:44:27 51° S
TSX-5 4.1 22:46:12 10° NW 22:48:57 38° WSW 22:48:57 38° WSW
Cosmos 1975 2.6 22:47:16 10° NNW 22:50:57 71° W 22:51:35 55° SSW
Cosmos 2322 Rocket 4.2 22:51:50 10° WNW 22:55:00 15° W 22:57:32 12° SW
MetOp-A 3.9 22:53:43 35° SSE 22:55:46 74° ENE 23:00:27 10° NNW
NOSS 0 Rocket 3.9 22:50:50 10° NW 22:57:01 79° WSW 23:00:06 31° SSE
NOSS 8 (H) 4.1 22:55:22 10° NW 22:58:15 73° NE 22:58:24 70° ENE
Lacrosse 4 Rocket 3.2 23:01:08 17° ESE 23:01:08 17° ESE 23:03:40 10° ENE
SL-16 R/B 3.9 22:56:17 10° NNW 23:01:18 30° NE 23:06:18 10° ESE
ISS -2.3 22:58:39 10° W 23:00:22 25° WSW 23:00:22 25° WSW
SAR-Lupe-2 3.5 23:02:14 56° SW 23:02:28 58° WSW 23:05:46 10° NNW
Meteor 2-9 Rocket 4.5 23:02:57 10° NNW 23:08:12 55° W 23:10:28 33° SSW
CZ-2C R/B 4.2 23:05:48 10° N 23:10:07 51° WNW 23:12:13 28° SW
Cosmos 841 Rocket 3.4 23:09:01 35° SSW 23:11:16 86° ESE 23:16:33 10° NNE
Cosmos 1812 Rocket 3.5 23:10:37 44° SSW 23:12:00 87° W 23:16:27 10° N
Intercosmos 24 3.7 23:09:24 10° N 23:13:28 75° ENE 23:14:15 52° SSE
Cosmos 2237 Rocket 2.2 23:08:40 10° NNW 23:14:24 85° ENE 23:17:27 29° SSE
Cosmos 2279 Rocket 4.4 23:14:25 25° SW 23:18:05 57° WNW 23:24:17 10° N
Cosmos 1980 3.6 23:12:45 10° NNW 23:18:27 86° WSW 23:21:16 31° SSE
Meteor 1-11 Rocket 3.8 23:13:19 10° NNW 23:18:59 68° W 23:21:21 35° S
CZ-2C R/B 2.5 23:18:46 34° SSE 23:21:09 86° ENE 23:26:23 10° NNW
NOSS 8 (E) 4.0 23:18:54 10° NW 23:21:49 85° NE 23:21:51 85° ENE
COSMOS 2428 3.3 23:17:33 10° NW 23:22:53 42° WSW 23:24:48 32° SSW
ACS3 Solar Sail 2.8 23:20:01 10° NNE 23:25:23 33° E 23:28:30 21° SE
Meteor 2-4 Rocket 4.0 23:23:24 32° SSE 23:25:40 53° E 23:31:02 10° NNE
Meteor 1-10 Rocket 4.3 23:23:16 32° SSW 23:26:09 82° WNW 23:32:08 10° NNE
Cosmos 1271 Rocket 3.9 23:26:03 24° W 23:27:00 28° WNW 23:30:00 10° N
Cosmos 2227 Rocket 3.4 23:26:17 23° SE 23:28:17 28° ESE 23:33:02 10° NE
Meteor 2-20 4.4 23:29:37 33° SSW 23:32:38 87° WNW 23:38:45 10° N
Cosmos 2221 3.3 23:31:11 29° WSW 23:32:42 41° WNW 23:36:43 10° N
Cosmos 192 4.4 23:30:43 10° NNW 23:35:40 73° ENE 23:38:13 29° SE
NOSS 8 (F) 4.1 23:34:17 10° NW 23:36:56 69° W 23:36:56 69° W
GP-B 3.4 23:33:00 10° N 23:37:17 55° W 23:38:41 37° SW
Cosmos 1238 Rocket 2.8 23:37:43 49° S 23:38:42 75° E 23:43:03 10° NNE
BREEZE-M DEB (TANK) 4.3 23:24:42 10° SW 23:39:15 41° SSE 23:44:01 10° E
Cosmos 1842 Rocket 4.2 23:38:31 33° SE 23:39:57 45° E 23:44:10 10° NNE
Cosmos 2263 Rocket 3.7 23:37:50 18° SE 23:40:02 22° ESE 23:44:16 10° NE
CZ-4C R/B 4.4 23:34:58 10° NW 23:40:09 32° NNE 23:46:40 10° ENE
Meteor 1-27 Rocket 3.7 23:39:18 33° SSW 23:42:03 90° WSW 23:47:50 10° NNE
Cosmos 2266 Rocket 4.4 23:39:14 10° NNW 23:45:00 48° W 23:47:46 29° SSW
Cosmos 1937 Rocket 4.4 23:42:54 10° NW 23:47:24 31° WSW 23:48:46 27° SW
ARIANE 5 R/B 4.5 23:49:14 16° WSW 23:50:26 18° W 23:53:29 10° NW
Sich 1 3.3 23:46:52 10° N 23:50:59 57° ENE 23:52:43 32° SE
ALOS 2 4.3 23:50:33 18° WSW 23:51:38 20° W 23:54:55 10° NW
Landsat 5 3.3 23:49:37 10° NNE 23:53:45 77° ESE 23:54:53 46° S
